Weather History for Tinker AFB, OK

Change the Weather History Date:

Friday, April 19, 2013

  Actual Average Record
Temperature  
Mean Temperature 48 °F -  
Max Temperature 63 °F 68 °F 84 °F (2008)
Min Temperature 34 °F 49 °F 34 °F (2013)
Degree Days  
Heating Degree Days 16    
Growing Degree Days 0 (Base 50)    
Moisture  
Dew Point 28 °F    
Average Humidity 47    
Maximum Humidity 71    
Minimum Humidity 26    
Precipitation  
Precipitation 0.00 in - - ()
Sea Level Pressure  
Sea Level Pressure 30.16 in    
Wind  
Wind Speed 12 mph (West)    
Max Wind Speed 16 mph    
Max Gust Speed 23 mph    
Visibility 10 miles    
Events      
Averages and records for this station are not official NWS values.
T = Trace of Precipitation, MM = Missing Value Source: NWS Daily Summary

Daily Weather History Graph

Daily Weather History Graph

Search for Another Location

Airport:

Trip Planner

Search our weather history database for the weather conditions in past years. The results will help you decide how hot, cold, wet, or windy it might be!

Date:

Astronomy

Apr. 19, 2013 Rise Set
Actual Time 6:51 AM CDT 8:06 PM CDT
Civil Twilight 6:25 AM CDT 8:32 PM CDT
Nautical Twilight 5:53 AM CDT 9:04 PM CDT
Astronomical Twilight 5:20 AM CDT 9:37 PM CDT
Moon 2:04 PM CDT (4/19) 2:54 AM CDT (4/19)
Length of Visible Light 14h 07m
Length of Day
13h 14m
First Quarter, 62% of the Moon is Illuminated
Apr 19
First Quarter
Apr 25
Full
May 2
Last Quarter
May 9
New
May 17
First Quarter

Hourly Weather History & Observations

Time (CDT) Temp. Windchill Dew Point Humidity Pressure Visibility Wind Dir Wind Speed Gust Speed Precip Events Conditions
12:58 AM 37.6 °F 30.5 °F 26.2 °F 64% 30.16 in 10.0 mi NW 10.4 mph - N/A   Clear
1:58 AM 37.2 °F 30.0 °F 25.3 °F 62% 30.16 in 10.0 mi WNW 10.4 mph - N/A   Clear
2:58 AM 36.3 °F 28.9 °F 25.2 °F 64% 30.17 in 10.0 mi WNW 10.4 mph - N/A   Clear
3:58 AM 36.7 °F 28.0 °F 24.8 °F 62% 30.16 in 10.0 mi WNW 13.8 mph - N/A   Clear
4:58 AM 35.6 °F 25.9 °F 25.5 °F 67% 30.17 in 10.0 mi NW 16.1 mph - N/A   Clear
5:58 AM 34.7 °F 25.9 °F 26.2 °F 71% 30.19 in 10.0 mi NW 12.7 mph - N/A   Clear
6:58 AM 34.9 °F 24.9 °F 25.2 °F 68% 30.20 in 10.0 mi WNW 16.1 mph - N/A   Clear
7:58 AM 36.9 °F 28.7 °F 23.9 °F 59% 30.23 in 10.0 mi NW 12.7 mph - N/A   Clear
8:58 AM 39.6 °F 31.3 °F 24.6 °F 55% 30.23 in 10.0 mi WNW 15.0 mph - N/A   Clear
9:58 AM 42.8 °F 35.1 °F 24.3 °F 48% 30.24 in 10.0 mi NW 16.1 mph - N/A   Clear
10:58 AM 45.5 °F 39.6 °F 23.5 °F 42% 30.25 in 10.0 mi WNW 12.7 mph - N/A   Clear
11:58 AM 48.9 °F - 22.5 °F 35% 30.24 in 10.0 mi WNW 11.5 mph - N/A   Clear
12:58 PM 52.2 °F - 24.1 °F 34% 30.22 in 10.0 mi WNW 6.9 mph - N/A   Clear
1:58 PM 55.4 °F - 26.4 °F 33% 30.18 in 10.0 mi WNW 11.5 mph - N/A   Clear
2:14 PM 57.2 °F - 26.6 °F 31% 30.14 in 10.0 mi West 15.0 mph 20.7 mph N/A   Clear
2:24 PM 57.2 °F - 28.4 °F 33% 30.14 in 10.0 mi WSW 12.7 mph - N/A   Clear
2:58 PM 58.5 °F - 29.8 °F 34% 30.16 in 10.0 mi West 16.1 mph 21.9 mph N/A   Clear
3:22 PM 59.0 °F - 28.4 °F 31% 30.12 in 10.0 mi WNW 13.8 mph 23.0 mph N/A   Clear
3:58 PM 60.6 °F - 30.2 °F 32% 30.14 in 10.0 mi West 12.7 mph 21.9 mph N/A   Clear
4:58 PM 62.4 °F - 29.5 °F 29% 30.11 in 10.0 mi West 12.7 mph 23.0 mph N/A   Clear
5:58 PM 63.1 °F - 29.1 °F 28% 30.10 in 10.0 mi WSW 16.1 mph - N/A   Clear
6:58 PM 63.0 °F - 27.3 °F 26% 30.09 in 10.0 mi West 11.5 mph - N/A   Clear
7:58 PM 58.8 °F - 31.1 °F 35% 30.09 in 10.0 mi South 4.6 mph - N/A   Clear
8:58 PM 53.6 °F - 33.3 °F 46% 30.10 in 10.0 mi South 5.8 mph - N/A   Clear
9:58 PM 49.6 °F - 36.1 °F 60% 30.12 in 10.0 mi South 9.2 mph - N/A   Clear
10:58 PM 47.8 °F - 36.1 °F 64% 30.12 in 10.0 mi South 8.1 mph - N/A   Clear
11:58 PM 47.8 °F - 35.6 °F 63% 30.12 in 10.0 mi South 8.1 mph - N/A   Clear